User: anonymous   Login
Location: Unspecified
(0.0000°N, 0.0000°E)
Time: 15:16:03
(UTC+01:00)
Language:

Cosmos 1703 - Orbit

View from above orbital plane
View from above orbital plane
View from above satellite
View from above satellite

Ground track
Ground track

The orbit data is extracted from the following two-line orbital elements,

1 16262U 85108A   15024.11979012  .00001716  00000-0  11147-3 0  6147
2 16262 082.4900 027.5207 0015394 078.4278 281.8677 15.07309749586905
Epoch (UTC): 24 January 2015 02:52:29
Eccentricity: 0.0015394
inclination: 82.4900°
perigee height: 534 km
apogee height: 555 km
right ascension of ascending node: 27.5207°
argument of perigee: 78.4278°
revolutions per day: 15.07309749
mean anomaly at epoch: 281.8677°
orbit number at epoch: 58690

The dashed part of the orbit path shows where the satellite is in the earth's shadow,  

DLR